User: anonymous   Login
Location: Unspecified
(0.0000°N, 0.0000°E)
Time: 23:31:55
(UTC+00:00)
Language:

SINAH 1 - Orbit

View from above orbital plane
View from above orbital plane
View from above satellite
View from above satellite

Ground track
Ground track

The orbit is defined by the following mean orbital elements,

1 28893U          26145.57044123 +.00000000 +00000-0 +62085-4 0 00002
2 28893  98.2830 279.7634 0014122 352.4422   7.6565 14.64139456    04
Epoch (UTC): 25 May 2026 13:41:26
Eccentricity: 0.0014122
inclination: 98.2830°
perigee height: 670 km
apogee height: 690 km
right ascension of ascending node: 279.7634°
argument of perigee: 352.4422°
revolutions per day: 14.64139456
mean anomaly at epoch: 7.6565°

The dashed part of the orbit path shows where the satellite is in the earth's shadow,  

DLR